Location: Unspecified
(44.0704°N, 88.6889°W)
Time: 00:27:38
(UTC+02:00)

Transit 2A - Pass Details

Date: 20 June 2019
Orbit: 600 x 958 km, 66.7° (Epoch: 21 October)

Event Time Altitude Azimuth Distance (km) Brightness Sun altitude
Rises 06:50:27 0° 153° (SSE) 3,594 - -20.8°
Reaches altitude 10° 06:54:26 10° 129° (SE) 2,679 - -21.0°
Exits shadow 06:56:55 13° 105° (ESE) 2,445 8.3 -21.1°
Maximum altitude 06:57:18 13° 101° (E) 2,441 8.3 -21.2°
Drops below altitude 10° 07:00:09 10° 74° (ENE) 2,687 8.8 -21.3°
Sets 07:04:08 0° 50° (NE) 3,612 9.8 -21.4°
